TimeEET,TemperatureF,Dew PointF,Humidity,Sea Level PressureIn,VisibilityMPH,Wind Direction,Wind SpeedMPH,Gust SpeedMPH,PrecipitationIn,Events,Conditions,WindDirDegrees,DateUTC
12:00 AM,77.0,66.2,69,29.80,-9999.0,North,2.3,-,N/A,,Clear,360,2013-08-26 22:00:00
1:00 AM,71.6,64.4,78,29.80,-9999.0,South,2.3,-,N/A,,Clear,180,2013-08-26 23:00:00
2:00 AM,72,66,76,29.79,6,South,2.3,,,,,190,2013-08-27 00:00:00
2:00 AM,71.6,68.0,88,29.77,-9999.0,South,2.3,-,N/A,,Clear,190,2013-08-27 00:00:00
3:00 AM,71.6,68.0,88,29.77,-9999.0,South,4.6,-,N/A,,Clear,190,2013-08-27 01:00:00
4:00 AM,68.0,64.4,88,29.80,-9999.0,SSW,3.5,-,N/A,,Clear,200,2013-08-27 02:00:00
5:00 AM,68.0,64.4,88,29.80,-9999.0,South,3.5,-,N/A,,Clear,180,2013-08-27 03:00:00
6:00 AM,68.0,64.4,88,29.80,-9999.0,SSW,2.3,-,N/A,,Clear,200,2013-08-27 04:00:00
7:00 AM,77.0,68.0,74,29.80,-9999.0,Calm,Calm,-,N/A,,Clear,0,2013-08-27 05:00:00
8:00 AM,82,68,53,29.82,6,NW,2.3,,,,,310,2013-08-27 06:00:00
8:00 AM,82.4,68.0,62,29.80,-9999.0,NW,2.3,-,N/A,,Clear,310,2013-08-27 06:00:00
9:00 AM,84.2,66.2,55,29.80,6.2,NNE,2.3,-,N/A,,Scattered Clouds,30,2013-08-27 07:00:00
10:00 AM,86.0,66.2,51,29.80,6.2,North,4.6,-,N/A,,Scattered Clouds,350,2013-08-27 08:00:00
11:00 AM,86.0,64.4,48,29.80,6.2,North,6.9,-,N/A,,Partly Cloudy,360,2013-08-27 09:00:00
12:00 PM,86.0,66.2,51,29.77,6.2,NNW,6.9,-,N/A,,Scattered Clouds,330,2013-08-27 10:00:00
1:00 PM,86.0,66.2,51,29.77,6.2,North,8.1,-,N/A,,Partly Cloudy,350,2013-08-27 11:00:00
2:00 PM,86,66,42,29.76,6,NNW,9.2,,,,,340,2013-08-27 12:00:00
2:00 PM,86.0,66.2,51,29.74,-9999.0,NNW,9.2,-,N/A,,Clear,340,2013-08-27 12:00:00
3:00 PM,86.0,66.2,51,29.74,-9999.0,NNW,10.4,-,N/A,,Clear,340,2013-08-27 13:00:00
4:00 PM,86.0,66.2,51,29.74,-9999.0,North,9.2,-,N/A,,Clear,350,2013-08-27 14:00:00
5:00 PM,84.2,62.6,48,29.74,-9999.0,North,10.4,-,N/A,,Clear,360,2013-08-27 15:00:00
6:00 PM,82.4,69.8,66,29.74,-9999.0,North,8.1,-,N/A,,Clear,360,2013-08-27 16:00:00
7:00 PM,80.6,69.8,70,29.77,-9999.0,North,5.8,-,N/A,,Clear,350,2013-08-27 17:00:00
8:00 PM,80,71,66,29.78,6,North,8.9,,,,,0,2013-08-27 18:00:00
8:00 PM,80.6,71.6,74,29.77,-9999.0,North,4.6,-,N/A,,Clear,360,2013-08-27 18:00:00
9:00 PM,80.6,71.6,74,29.77,-9999.0,North,4.6,-,N/A,,Clear,10,2013-08-27 19:00:00
10:00 PM,77.0,71.6,83,29.77,-9999.0,Calm,Calm,-,N/A,,Clear,0,2013-08-27 20:00:00
11:00 PM,75.2,69.8,83,29.77,-9999.0,South,2.3,-,N/A,,Clear,180,2013-08-27 21:00:00